Wetbulb
63.17 62.76 61.01 57.19 50.07 49.63 46.76 49.04 52.45 51.94 52.46 56.16 56.48 57.17 55.32 56.17 54.70 52.31 64.32 69.17 68.99 69.90 73.30 72.81 71.72 72.42 72.44 72.69 72.88 73.30 73.83 74.19 74.01 73.82 73.67 73.29 73.17 73.27 74.10 73.77 73.91 73.60 73.70 73.35 72.96 72.98 73.13 72.73 72.25
63.63 61.16 58.00 54.52 47.76 45.21 47.43 51.27 50.43 53.17 55.38 56.38 56.24 58.18 54.80 53.77 57.39 61.25 65.02 69.15 69.17 70.26 73.35 73.69 71.15 71.43 72.43 72.70 72.91 73.48 73.97 74.22 73.82 73.62 73.68 73.17 73.19 72.81 72.50 72.64 72.44 72.78 73.45 73.70 73.00 72.83 72.64 72.00 71.73
63.12 59.30 53.12 50.45 47.95 45.11 47.04 50.83 51.77 54.68 55.76 55.49 55.14 57.49 56.21 55.25 58.36 61.70 66.35 68.26 68.73 70.14 72.32 73.75 70.87 70.91 72.22 72.68 72.94 73.60 73.75 73.43 73.38 73.32 73.23 72.30 72.28 71.43 69.78 69.45 70.39 72.04 73.77 73.63 72.83 72.44 72.08 71.46 70.44
59.57 55.46 54.06 48.23 46.77 49.60 49.78 51.67 52.98 53.92 55.54 56.25 56.21 53.97 57.15 60.95 60.44 62.71 66.15 67.04 68.07 69.99 71.38 70.46 69.91 70.90 71.87 72.60 72.79 73.21 73.11 72.66 72.69 72.81 72.67 72.04 70.74 69.43 68.16 68.06 69.10 70.41 71.87 72.71 72.46 72.45 71.33 70.08 69.49
57.67 54.16 48.15 46.62 46.55 49.10 51.72 52.78 54.08 53.28 54.26 55.17 56.06 54.33 55.48 60.24 63.63 64.95 65.87 67.58 69.04 70.06 73.11 73.11 69.44 70.66 71.72 72.46 72.77 72.60 72.34 72.26 72.30 72.23 72.13 71.00 69.10 68.37 68.49 69.01 68.72 68.30 69.67 72.13 72.06 71.16 70.16 69.41 68.84
51.84 52.31 46.23 44.83 47.27 50.31 51.76 52.75 53.92 54.03 54.14 54.97 54.77 54.94 56.46 61.81 63.32 66.29 67.29 69.50 71.42 71.70 73.45 73.28 70.35 70.49 71.15 71.62 71.64 71.56 71.48 71.49 71.64 71.42 70.85 68.78 66.96 67.01 67.41 68.87 68.95 68.12 69.41 70.53 70.59 69.76 69.21 68.58 68.44
50.72 49.30 46.22 46.66 47.45 48.99 50.29 53.71 51.47 52.78 53.27 53.78 56.43 53.47 57.55 61.29 66.10 68.85 68.54 70.24 72.00 73.33 73.64 73.58 72.85 71.75 70.04 69.93 69.90 69.78 69.93 70.32 70.50 70.38 69.71 68.05 67.04 67.31 67.18 67.72 68.88 68.45 69.59 70.23 69.59 68.72 68.09 67.98 67.29
52.91 50.90 47.02 47.94 47.03 47.62 52.05 52.23 52.74 52.47 52.67 57.04 56.97 53.33 54.92 62.61 65.13 67.72 69.54 70.69 72.09 73.18 73.17 73.35 73.36 73.09 73.02 72.79 68.63 68.88 68.97 68.88 68.72 68.98 68.22 66.57 66.41 67.33 67.25 68.40 68.79 69.36 69.68 69.64 68.85 67.69 67.47 66.97 66.39
55.38 47.89 45.86 47.32 47.85 49.29 52.55 49.88 53.44 54.72 53.52 54.64 56.34 57.05 59.16 61.99 64.12 65.87 68.21 69.72 71.10 72.20 72.75 73.07 73.14 73.46 73.55 73.13 71.52 69.11 68.86 68.19 67.85 68.68 66.89 65.93 69.24 67.76 68.89 68.35 68.32 69.02 68.94 68.45 67.47 66.97 66.24 65.28 65.24
50.98 47.86 48.11 51.46 51.51 50.21 51.47 50.68 51.90 51.58 52.18 52.96 54.46 57.43 58.17 59.54 61.94 62.42 64.65 67.01 69.12 70.29 71.88 72.45 73.04 73.16 73.33 71.50 72.59 71.89 72.02 71.88 71.50 71.99 71.11 71.25 70.77 70.04 69.47 68.09 67.57 68.24 67.40 67.13 66.75 66.01 64.80 65.60 68.07
51.55 47.21 51.30 52.05 52.73 52.30 50.56 50.33 52.16 50.58 49.99 53.07 53.23 55.56 57.60 58.23 59.05 60.88 61.44 64.40 67.92 69.96 71.21 72.03 72.73 73.34 73.19 71.74 72.08 71.53 71.64 71.82 72.00 71.53 71.61 71.71 70.25 71.67 69.79 69.76 68.79 69.78 67.85 68.36 67.20 64.96 68.21 68.08 67.85
48.70 51.53 51.91 52.46 53.18 52.46 50.42 52.27 50.96 51.32 51.32 53.75 55.00 56.54 56.78 56.91 57.97 58.55 60.36 61.52 63.76 67.72 70.88 72.07 72.40 72.63 73.02 72.15 71.60 71.90 71.42 71.74 71.37 71.53 72.05 70.51 69.70 69.85 69.29 67.42 66.68 68.15 69.64 68.32 66.08 67.72 68.69 67.76 67.75
48.80 50.16 51.75 52.50 52.35 51.73 52.46 50.83 51.04 51.81 54.05 54.71 54.49 54.80 55.23 56.25 57.47 59.50 59.89 61.30 62.77 64.54 68.79 71.58 72.20 72.70 72.21 71.85 71.18 71.55 71.64 71.57 71.93 71.35 71.87 70.68 69.80 68.59 68.46 68.16 68.10 68.15 69.11 68.80 66.17 67.73 68.04 67.60 67.19
50.11 50.18 50.80 51.88 51.76 52.03 50.07 50.56 51.39 52.30 54.54 54.22 54.50 54.23 54.92 55.55 56.69 58.23 59.36 60.03 61.79 64.07 67.68 70.73 71.72 72.48 72.95 69.95 70.68 71.15 71.22 70.89 70.90 70.68 71.01 70.57 69.69 69.90 68.42 68.84 67.81 66.62 68.66 67.44 65.11 65.28 66.39 66.65 65.96
48.77 46.05 48.12 49.12 49.98 49.84 51.41 48.00 49.20 53.23 54.37 53.77 54.12 55.07 55.45 55.51 56.64 57.39 58.87 59.54 60.67 63.77 66.37 69.12 71.24 72.67 72.53 70.29 69.95 70.40 70.47 70.47 70.10 69.53 71.10 70.35 69.93 69.58 68.94 68.23 67.50 67.43 68.45 65.53 63.99 63.49 63.94 66.38 65.25
43.37 46.13 42.71 48.15 49.60 50.07 49.59 44.03 50.96 54.50 54.28 53.83 54.43 55.51 55.90 56.42 56.89 57.80 59.17 59.67 60.52 62.20 64.91 67.50 69.01 71.73 72.76 71.42 71.14 70.18 69.54 69.56 69.55 68.61 69.81 70.18 69.24 68.95 69.12 68.16 68.18 68.25 67.62 64.88 63.28 63.72 63.03 62.04 63.21
41.46 37.52 40.76 43.81 49.10 49.54 48.70 45.57 50.79 53.46 53.91 53.23 54.55 55.49 56.12 56.87 57.95 58.89 59.35 59.85 60.44 62.16 62.69 65.33 69.64 70.36 72.27 71.64 70.73 70.53 69.87 69.34 69.05 68.75 68.21 68.93 68.58 68.27 68.05 67.78 67.95 67.73 66.88 66.01 63.60 62.68 61.54 60.69 61.41
35.58 37.68 40.37 41.37 45.39 46.76 46.01 46.33 49.93 52.19 52.68 52.75 53.99 55.07 55.78 56.27 57.05 58.66 59.51 60.55 60.86 62.72 63.24 64.60 68.09 70.33 72.14 71.03 70.33 69.79 68.89 67.22 67.93 67.51 67.70 68.22 68.41 67.73 67.32 67.70 67.58 67.43 66.11 64.61 62.00 61.61 61.48 61.07 61.73
38.43 37.76 37.25 41.27 45.61 44.69 44.56 45.17 47.30 50.69 51.70 51.99 52.71 53.77 55.27 56.22 58.09 58.94 60.12 60.78 60.93 63.42 64.28 64.97 66.26 69.17 70.23 68.76 67.70 65.89 65.26 65.06 65.90 66.31 66.62 67.35 67.39 66.72 67.15 66.32 66.24 64.40 63.12 62.63 62.77 61.92 60.75 59.89 63.57
39.34 36.78 37.55 40.75 42.43 42.46 42.89 43.26 47.33 48.65 49.10 51.09 51.92 52.90 54.10 55.05 56.29 57.62 59.00 59.92 61.58 61.64 64.64 65.05 66.34 68.15 69.11 66.97 65.95 67.04 67.56 66.60 67.14 66.46 66.19 66.03 65.67 66.11 65.59 65.57 64.20 63.23 62.79 62.36 60.98 61.39 59.38 59.51 63.02
39.03 37.53 37.79 37.56 40.61 42.47 41.95 40.48 42.79 45.96 47.93 48.93 50.33 51.84 53.37 54.12 54.68 55.30 56.62 58.39 59.85 62.44 64.74 65.17 66.36 67.39 68.30 65.25 66.35 67.47 66.98 65.50 64.09 63.59 64.61 65.45 65.08 64.31 63.66 63.53 63.60 62.83 61.89 61.09 60.81 61.24 59.24 57.79 60.60
35.75 41.03 39.75 37.80 36.72 34.20 41.87 34.40 40.98 44.86 46.30 48.24 49.57 50.92 51.76 52.70 53.79 54.53 55.66 57.46 59.66 62.40 65.14 65.79 66.36 66.87 67.55 65.90 66.47 66.80 64.70 62.61 64.22 64.61 64.94 64.75 65.66 64.40 63.13 62.61 62.29 62.17 61.92 61.35 60.57 61.72 61.42 60.23 59.03
36.51 41.04 40.47 39.77 37.57 36.87 37.46 35.65 39.89 44.47 43.89 46.47 48.66 50.08 52.16 54.21 56.26 57.34 58.24 59.10 59.92 62.29 64.76 66.18 66.59 66.86 66.94 66.78 67.20 66.56 66.25 65.23 65.09 64.70 64.82 64.41 64.73 64.88 63.52 62.31 61.63 60.78 61.13 61.13 60.28 60.21 60.78 60.60 61.03
41.12 38.93 39.83 40.14 38.36 31.41 36.69 36.47 37.55 41.46 44.04 46.86 49.85 51.18 53.75 56.15 57.78 58.71 60.34 61.94 61.13 65.10 65.60 65.51 65.50 66.28 66.53 66.26 67.26 66.52 66.13 65.17 64.08 63.78 63.51 63.54 64.30 65.12 63.65 63.23 61.62 60.48 60.50 60.21 59.74 60.12 60.34 60.42 60.89
39.30 36.22 30.11 28.89 30.18 29.98 38.27 36.07 38.78 44.06 46.22 47.88 51.01 53.80 55.61 57.50 58.20 59.07 59.95 61.23 60.88 63.06 64.04 61.72 62.75 64.04 64.57 65.25 66.40 66.40 66.00 65.12 64.04 63.75 63.12 63.20 63.31 63.01 63.21 62.65 61.10 60.27 59.84 59.64 59.31 59.25 59.68 59.53 59.48
36.53 35.80 31.17 24.50 26.83 30.93 37.78 33.91 38.77 45.58 47.39 50.20 53.40 55.10 56.22 57.03 59.08 59.38 60.51 61.51 61.42 62.32 62.75 59.46 60.91 61.77 61.72 63.91 65.16 65.39 65.42 64.48 63.57 63.24 63.12 62.65 63.00 62.67 61.96 61.54 60.27 59.91 59.37 59.22 58.74 58.92 59.30 59.36 59.35
36.05 33.90 38.83 34.23 35.93 32.32 35.36 38.56 43.09 45.71 46.41 51.10 52.67 53.89 55.29 57.18 58.74 59.65 60.68 61.12 61.16 60.30 58.90 58.61 60.18 60.51 59.96 61.93 63.81 63.61 63.99 63.45 62.55 62.80 63.56 63.46 63.39 61.72 61.68 58.81 58.31 58.89 58.59 58.28 58.30 58.23 58.56 59.03 59.38
38.56 39.92 32.96 34.77 26.48 26.42 33.33 35.97 37.16 42.06 44.40 49.43 50.88 52.84 55.32 57.23 57.72 58.34 59.03 59.03 58.78 58.06 58.10 58.56 59.54 59.52 59.82 61.85 62.58 62.77 63.04 63.32 63.02 62.54 62.43 62.58 61.42 60.33 57.36 56.05 56.17 56.41 56.93 57.25 57.35 57.49 58.59 58.45 59.08
36.55 34.89 36.31 36.22 34.82 28.95 28.74 34.12 43.91 44.18 45.99 47.73 50.98 53.55 55.19 56.36 57.28 56.95 55.82 56.03 55.79 57.61 57.50 57.43 57.84 58.39 59.06 60.86 61.72 62.58 62.22 62.50 62.04 62.17 62.39 62.04 60.32 59.12 57.03 55.74 56.01 55.68 55.43 56.15 56.21 56.49 57.53 57.84 58.29
41.38 37.15 37.16 31.58 30.79 34.32 33.91 34.87 47.77 47.80 49.05 50.01 51.42 53.54 55.69 56.18 56.04 56.00 55.40 54.74 53.21 52.72 55.88 56.37 56.99 57.82 58.98 59.56 60.03 61.08 60.99 61.19 61.67 61.53 61.87 61.69 58.98 58.28 55.87 56.13 56.09 55.28 55.26 55.71 55.72 56.15 57.17 57.24 57.52
MSLP
1010.98 1010.31 1009.11 1007.48 1006.17 1002.89 999.97 998.20 997.95 998.32 998.88 999.23 999.53 999.47 999.61 999.68 1000.09 1001.22 1002.26 1002.79 1003.43 1004.55 1005.81 1007.06 1007.58 1007.81 1008.09 1008.35 1008.75 1008.90 1009.15 1009.41 1009.71 1009.94 1010.27 1010.59 1010.70 1010.94 1011.30 1011.63 1011.89 1012.18 1012.25 1012.52 1012.90 1013.49 1013.74 1014.02 1014.54
1009.49 1008.69 1008.17 1006.22 1004.17 1000.74 998.32 997.38 997.75 998.41 999.26 1000.09 1000.38 1000.31 1000.40 1000.08 1000.97 1001.73 1002.37 1003.51 1003.80 1004.62 1005.74 1006.62 1007.88 1008.07 1008.33 1008.49 1008.74 1008.87 1009.17 1009.41 1009.55 1009.93 1010.34 1010.69 1010.80 1011.01 1011.49 1011.53 1011.98 1012.14 1012.63 1012.61 1012.92 1013.57 1014.21 1014.34 1014.70
1010.08 1008.40 1007.11 1004.72 1002.64 1000.07 997.62 996.90 997.81 998.43 1000.02 1000.58 1000.51 1000.64 1000.23 1000.15 1000.93 1001.21 1002.00 1003.51 1004.02 1004.58 1005.38 1006.53 1007.81 1008.11 1008.38 1008.63 1008.83 1009.01 1009.30 1009.42 1009.58 1010.04 1010.45 1010.89 1011.31 1011.64 1012.26 1012.85 1013.05 1012.89 1012.70 1012.89 1013.15 1013.52 1014.54 1014.92 1015.08
1008.63 1007.75 1006.81 1003.96 1001.01 999.13 998.35 997.59 998.29 998.79 1000.08 1000.41 1000.30 1000.49 1000.58 1000.61 1001.07 1001.40 1002.37 1003.21 1003.90 1004.66 1005.28 1007.35 1008.03 1008.40 1008.65 1008.72 1008.97 1009.08 1009.32 1009.51 1009.69 1010.08 1010.57 1011.08 1012.05 1013.08 1013.00 1013.70 1014.13 1013.06 1012.91 1013.01 1013.69 1014.20 1014.63 1015.08 1015.38
1007.81 1006.15 1004.43 1002.42 1000.82 999.56 998.44 998.93 998.93 999.66 999.72 1000.31 1000.28 1000.12 1000.47 1001.12 1001.38 1001.89 1002.36 1003.17 1003.86 1004.67 1005.54 1007.27 1008.03 1008.41 1008.70 1008.96 1009.12 1009.21 1009.46 1009.62 1009.86 1010.27 1010.76 1011.33 1012.34 1012.55 1013.19 1013.65 1014.40 1012.37 1014.04 1013.60 1013.97 1014.51 1015.00 1015.33 1015.45
1006.68 1005.56 1003.37 1001.38 999.90 998.98 998.59 999.34 999.79 1000.04 1000.01 1000.21 1000.40 1000.28 1000.32 1000.79 1001.57 1002.26 1002.60 1003.29 1004.18 1004.92 1005.98 1007.22 1008.25 1008.42 1008.68 1008.99 1009.29 1009.50 1009.73 1009.89 1010.13 1010.55 1010.90 1011.38 1011.84 1011.95 1011.20 1013.26 1013.67 1014.09 1014.26 1014.07 1014.40 1014.39 1015.00 1015.63 1015.86
1006.03 1004.41 1002.70 1001.37 1000.01 998.60 998.33 999.52 999.89 1000.02 999.99 999.94 1000.44 1000.16 1000.34 1000.99 1002.14 1002.94 1002.89 1003.52 1004.42 1005.26 1006.09 1007.06 1007.75 1008.44 1008.74 1009.04 1009.24 1009.70 1009.93 1010.12 1010.53 1010.84 1011.28 1011.55 1011.89 1012.16 1012.44 1013.10 1013.18 1013.38 1013.94 1014.30 1014.50 1014.87 1015.20 1015.63 1016.05
1005.71 1004.58 1002.66 1001.27 1000.32 999.26 998.83 999.09 1000.23 1000.03 999.62 999.83 1000.32 1000.03 999.96 1001.34 1002.77 1003.07 1003.09 1003.67 1004.34 1005.27 1005.96 1006.63 1007.24 1007.93 1008.40 1008.78 1009.24 1009.66 1010.08 1010.30 1010.61 1011.02 1011.34 1011.76 1012.08 1012.20 1012.58 1012.91 1013.01 1013.43 1014.02 1014.58 1014.87 1015.14 1015.63 1015.93 1016.05
1005.76 1004.45 1002.03 1001.12 1000.45 999.61 999.48 1000.03 1000.19 1000.00 999.69 1000.35 1000.41 1000.62 1000.75 1001.57 1002.42 1002.64 1003.09 1003.71 1004.26 1005.04 1005.73 1006.24 1006.82 1007.40 1007.92 1008.41 1008.92 1009.58 1010.06 1010.47 1010.71 1010.97 1011.46 1012.03 1012.13 1012.49 1012.63 1012.85 1013.27 1013.65 1014.27 1014.73 1015.20 1015.26 1015.58 1016.50 1016.50
1005.33 1003.53 1001.82 1001.19 1000.40 999.97 999.91 1000.15 1000.09 1000.42 1000.38 1000.00 1000.56 1001.21 1001.32 1001.45 1001.80 1002.01 1002.46 1003.11 1003.78 1004.47 1005.29 1005.75 1006.34 1006.93 1007.50 1008.10 1008.58 1009.12 1009.35 1009.87 1010.17 1010.33 1011.03 1011.46 1011.55 1011.83 1012.06 1012.60 1013.52 1013.99 1014.22 1014.75 1015.59 1015.86 1015.90 1016.41 1016.49
1004.71 1002.94 1002.46 1001.29 1001.05 1000.82 1000.72 1000.96 1000.72 1000.19 1000.02 999.64 1000.06 1000.43 1000.92 1000.91 1001.23 1001.65 1001.72 1002.10 1002.81 1003.65 1004.64 1005.30 1005.85 1006.40 1007.07 1008.00 1008.24 1008.66 1008.92 1008.82 1009.47 1009.88 1010.16 1010.83 1011.28 1011.86 1011.72 1012.71 1013.25 1013.98 1014.40 1014.83 1015.76 1016.14 1015.70 1015.84 1015.97
1004.14 1003.45 1003.01 1002.14 1001.61 1001.30 1001.29 1001.34 1000.86 1000.40 1000.20 1000.06 999.69 999.99 1000.33 1000.87 1000.95 1001.02 1001.20 1001.37 1001.68 1002.56 1003.86 1004.79 1005.29 1005.90 1006.78 1007.46 1007.85 1007.79 1008.59 1008.44 1008.84 1009.48 1010.07 1010.79 1011.17 1011.60 1011.74 1011.81 1012.59 1013.58 1014.16 1014.60 1015.21 1015.23 1015.19 1015.66 1016.06
1003.84 1003.53 1003.05 1002.61 1002.20 1002.19 1001.92 1001.18 1000.99 1000.48 1000.41 1000.46 1000.24 1000.09 1000.41 1000.65 1000.56 1000.57 1000.76 1000.90 1001.29 1001.52 1002.66 1004.01 1004.93 1005.41 1006.39 1006.92 1007.14 1007.28 1008.02 1008.40 1008.62 1009.04 1009.90 1010.60 1010.99 1011.36 1011.31 1011.63 1012.47 1013.31 1014.20 1014.57 1014.80 1014.60 1015.28 1015.58 1016.15
1004.32 1003.64 1002.66 1002.53 1002.22 1001.89 1001.80 1001.16 1001.11 1000.24 1000.61 1000.22 1000.09 999.94 1000.06 1000.05 999.98 999.98 1000.21 1000.48 1000.88 1001.44 1001.98 1003.08 1004.16 1004.88 1005.52 1006.71 1007.00 1007.14 1007.80 1008.28 1008.84 1009.17 1009.45 1010.13 1010.66 1011.25 1011.45 1011.90 1012.36 1013.14 1013.75 1014.51 1014.76 1015.19 1015.36 1015.78 1015.84
1004.69 1003.90 1003.17 1002.40 1002.11 1001.53 1001.59 1000.19 999.63 999.70 999.62 999.24 999.08 999.07 999.06 998.94 998.91 998.94 999.24 999.63 999.94 1000.70 1001.55 1002.37 1003.34 1004.20 1004.84 1006.20 1006.93 1007.11 1007.26 1007.67 1008.67 1009.02 1009.11 1009.71 1010.35 1010.62 1011.19 1011.63 1012.13 1012.59 1013.50 1014.49 1015.09 1015.76 1015.71 1015.83 1015.95
1005.03 1003.91 1002.19 1001.44 1001.09 1000.76 1001.15 997.72 998.72 997.97 997.65 997.48 997.99 997.99 997.89 997.92 998.04 998.08 998.35 998.79 999.25 999.56 1000.42 1001.54 1002.38 1003.44 1004.27 1005.05 1005.97 1006.17 1006.92 1007.44 1008.06 1008.73 1008.82 1009.31 1009.92 1010.38 1010.84 1011.37 1011.94 1012.34 1013.33 1014.38 1015.04 1015.70 1016.08 1016.10 1016.03
1004.10 1002.40 1001.54 1000.55 1000.03 999.66 999.82 998.46 998.01 997.64 997.10 996.84 997.12 997.15 997.10 997.15 997.21 997.40 997.63 998.13 998.50 998.97 999.78 1000.47 1001.70 1002.71 1003.74 1004.33 1005.12 1005.58 1006.30 1006.93 1007.36 1008.00 1008.57 1008.98 1009.60 1010.11 1010.47 1011.06 1011.65 1012.14 1012.94 1013.92 1014.81 1015.46 1016.00 1016.50 1016.12
1002.93 1001.98 1000.94 999.95 999.88 999.19 998.92 998.22 997.98 997.39 996.85 997.04 996.59 996.30 996.33 996.40 996.55 996.90 997.38 997.64 997.95 998.55 999.33 1000.17 1000.70 1001.94 1003.12 1004.07 1004.83 1005.18 1005.77 1006.94 1007.23 1007.81 1008.02 1008.42 1009.19 1009.70 1010.22 1010.74 1011.30 1011.90 1012.77 1013.56 1014.38 1015.14 1015.68 1015.83 1015.34
1003.37 1002.53 1001.43 1000.53 999.39 999.01 998.15 997.56 997.08 996.89 996.33 996.09 996.20 996.18 996.01 996.10 996.34 996.66 996.88 997.11 997.49 998.10 999.22 999.99 1000.27 1001.36 1002.42 1003.48 1004.00 1004.84 1005.40 1006.52 1007.15 1007.59 1007.98 1008.06 1008.63 1009.43 1009.87 1010.54 1011.08 1011.83 1012.45 1013.21 1013.76 1014.58 1015.20 1015.30 1014.89
1001.83 1001.61 1000.77 1000.22 1000.00 999.34 998.41 997.61 997.40 996.88 996.03 995.48 995.34 995.28 995.57 995.93 996.00 996.19 996.37 996.70 997.12 997.88 999.06 999.59 999.89 1000.77 1001.78 1003.28 1004.16 1004.67 1005.04 1005.64 1006.29 1006.95 1007.49 1007.99 1008.41 1008.97 1009.69 1010.32 1011.02 1011.71 1012.14 1013.00 1013.57 1014.17 1014.86 1015.21 1014.65
1001.15 1000.67 999.87 1000.16 999.88 999.29 998.83 997.03 996.67 996.44 995.77 995.18 994.69 994.74 994.85 995.07 995.20 995.43 995.61 996.06 996.69 997.86 998.52 999.16 999.49 1000.20 1001.25 1003.19 1004.19 1004.13 1004.73 1005.42 1006.19 1006.84 1007.13 1007.55 1008.15 1008.92 1009.55 1010.20 1010.85 1011.57 1012.21 1012.13 1012.96 1013.61 1013.95 1014.68 1014.79
1000.89 1000.36 1000.36 1000.22 1000.13 998.88 998.56 995.53 995.48 994.09 993.28 993.05 993.10 993.72 994.08 994.36 994.64 994.91 995.24 995.89 996.35 997.18 998.19 998.85 999.15 999.84 1001.32 1002.85 1003.11 1002.97 1003.70 1004.49 1005.08 1005.57 1006.46 1007.09 1007.53 1008.27 1009.06 1009.82 1010.50 1011.04 1011.55 1011.81 1012.45 1012.80 1013.23 1013.96 1014.28
1000.74 1000.85 1000.24 999.93 999.56 999.27 998.19 996.03 993.96 993.20 992.60 992.57 992.95 993.17 993.50 994.28 994.82 995.26 995.41 995.50 995.72 996.13 997.76 998.89 999.05 999.54 1001.06 1001.82 1002.03 1002.60 1002.53 1003.48 1003.95 1004.49 1005.24 1006.38 1007.07 1007.77 1008.52 1009.27 1009.89 1010.43 1010.70 1011.11 1011.77 1012.45 1012.72 1013.28 1013.33
1002.05 1001.28 1000.22 1000.07 999.35 998.46 996.92 995.70 993.23 992.50 992.16 992.13 992.45 993.18 994.04 994.99 995.26 995.47 995.48 996.09 995.93 996.59 998.05 999.34 999.46 999.51 1000.48 1001.26 1001.54 1002.01 1002.21 1002.59 1003.05 1003.89 1004.61 1005.63 1006.28 1006.88 1007.79 1008.50 1009.27 1009.90 1010.43 1010.74 1010.95 1011.59 1012.35 1012.69 1012.84
1002.08 1001.24 999.72 999.29 998.15 996.33 995.98 995.12 992.89 992.32 991.78 991.83 992.58 994.06 995.20 995.51 995.59 995.74 995.93 996.12 996.26 997.40 998.88 1000.17 1000.42 1000.02 1000.85 1001.28 1001.50 1001.65 1002.11 1002.64 1003.05 1003.48 1004.17 1005.07 1005.76 1006.61 1007.26 1008.04 1008.66 1009.12 1009.58 1010.33 1010.61 1011.13 1011.72 1012.22 1012.47
1001.07 1000.62 998.73 997.52 996.71 995.52 995.13 993.56 992.00 992.17 992.21 992.91 993.38 994.59 995.48 995.68 996.01 996.48 996.91 997.10 997.55 998.40 999.42 1000.77 1000.88 1000.96 1001.56 1001.51 1001.46 1001.77 1002.17 1002.63 1003.07 1003.46 1003.79 1004.55 1005.22 1006.10 1007.08 1007.65 1008.12 1008.59 1009.00 1009.50 1009.99 1010.45 1011.05 1011.81 1012.30
999.81 999.30 998.99 997.71 996.71 995.49 993.81 992.98 992.58 991.88 992.06 993.04 994.47 995.01 995.53 996.09 996.55 997.17 997.95 998.48 998.90 999.59 1000.23 1000.95 1001.23 1001.45 1001.96 1002.09 1001.85 1001.87 1002.14 1002.49 1002.87 1003.23 1003.56 1004.09 1004.81 1005.92 1006.61 1007.32 1007.59 1007.95 1008.33 1008.70 1009.28 1009.54 1010.49 1011.30 1011.89
998.82 998.69 998.19 997.63 996.74 994.98 993.33 991.85 991.07 991.60 992.17 993.08 994.23 995.09 995.90 996.89 997.68 998.51 999.08 999.65 1000.13 1000.53 1000.87 1001.30 1001.55 1001.68 1001.98 1001.97 1001.81 1001.84 1002.04 1002.39 1002.77 1003.23 1003.58 1004.27 1005.14 1005.85 1006.73 1007.11 1007.43 1007.63 1007.84 1008.24 1008.67 1009.46 1009.96 1010.48 1011.28
998.68 998.05 997.25 997.23 996.83 995.33 993.59 991.89 990.87 990.45 991.48 992.63 993.98 995.22 996.28 997.21 998.03 999.26 1000.28 1000.94 1001.43 1001.50 1001.44 1001.58 1001.88 1002.06 1002.08 1001.80 1001.75 1001.64 1001.81 1002.35 1002.81 1003.09 1003.54 1004.38 1005.10 1005.77 1006.43 1006.86 1007.26 1007.61 1007.90 1008.25 1008.59 1009.18 1009.70 1009.77 1010.92
999.37 997.73 997.16 996.61 996.35 995.59 994.32 992.45 991.38 990.33 991.60 992.92 994.32 995.67 996.70 997.84 998.67 999.74 1000.77 1001.61 1002.17 1002.47 1002.27 1002.17 1002.23 1002.42 1002.38 1002.12 1002.18 1002.05 1002.16 1002.41 1002.76 1003.08 1003.46 1004.35 1005.07 1005.65 1006.25 1006.64 1007.07 1007.54 1007.81 1008.22 1008.62 1009.07 1009.52 1009.80 1010.65
Wind_Speed
9 13 12 7 10 9 17 18 7 2 4 8 4 4 5 5 2 4 5 10 15 13 14 13 10 10 10 9 8 8 11 14 15 15 15 15 16 16 15 15 15 16 17 18 18 15 17 18 17
13 8 8 9 10 15 14 18 8 10 6 3 5 5 5 6 6 9 10 12 12 13 13 13 10 10 9 8 8 8 12 14 15 15 15 15 15 14 18 16 16 17 17 19 19 17 16 18 17
16 11 10 9 16 17 16 5 5 7 7 9 8 9 7 6 7 11 16 15 13 12 12 15 12 11 10 9 8 7 10 12 14 14 14 14 13 12 5 5 5 14 18 18 19 20 17 15 15
9 7 9 13 20 17 16 11 6 6 9 11 11 8 4 6 10 6 16 16 13 12 10 17 11 10 9 9 8 8 11 11 12 13 13 12 11 18 14 9 7 12 17 18 16 17 16 15 15
10 9 14 18 22 23 8 10 3 7 7 10 13 10 6 9 7 7 14 14 12 12 13 14 11 11 10 9 8 7 8 10 11 10 12 15 22 22 20 15 10 5 5 12 18 17 16 15 16
11 11 15 17 23 21 12 7 10 13 10 11 15 15 9 12 10 8 10 14 10 11 11 13 11 11 11 10 8 6 6 8 9 10 12 25 20 14 21 14 17 17 14 14 17 18 18 15 14
17 15 18 21 22 21 6 10 12 15 16 15 10 17 12 11 7 3 9 11 11 11 11 13 13 12 9 9 9 5 6 5 5 7 15 21 18 13 14 15 16 16 14 14 17 17 17 17 14
15 15 25 21 17 24 14 10 10 18 17 4 6 10 15 15 6 6 8 10 12 12 12 13 13 13 11 11 9 8 5 5 5 7 12 13 12 15 11 9 16 15 15 14 15 17 16 16 15
14 16 19 22 21 19 13 7 14 11 15 7 14 12 8 9 7 8 9 10 11 11 12 12 13 13 12 10 10 9 7 5 7 8 8 11 11 14 13 14 12 13 14 14 13 16 17 12 13
18 17 25 19 17 16 13 7 16 11 16 14 11 10 5 7 9 10 10 12 13 14 14 13 13 13 13 9 10 11 11 10 10 11 13 10 10 11 13 12 12 13 14 15 14 14 17 15 10
21 25 23 19 19 17 13 19 16 17 17 19 20 18 16 13 9 9 10 11 14 14 13 14 14 14 13 9 8 7 7 8 9 13 11 11 8 8 9 6 8 7 9 9 11 10 10 13 9
26 26 23 22 23 19 20 19 22 20 18 20 14 14 7 12 13 12 12 11 13 15 16 15 16 14 12 10 10 10 9 8 7 10 10 8 7 9 9 8 10 9 6 10 9 9 8 12 12
29 25 25 23 21 22 23 25 22 24 19 19 19 19 15 17 18 14 13 12 11 13 15 16 16 15 14 13 11 10 9 8 9 8 11 9 8 10 8 7 8 9 8 9 6 8 9 10 11
22 24 23 23 26 23 24 25 24 25 22 24 24 22 20 22 20 17 16 17 13 13 14 16 18 17 16 12 12 9 9 10 9 9 11 14 11 9 10 8 8 9 9 7 3 4 10 8 10
21 25 23 25 21 23 20 28 29 23 24 27 25 23 24 24 22 21 19 18 16 14 13 16 17 17 17 16 13 11 10 10 10 10 13 13 13 12 12 9 8 9 8 10 6 3 3 8 9
24 23 23 20 25 25 24 33 23 15 16 30 26 25 24 23 23 21 19 18 18 14 17 16 15 17 17 17 14 12 11 10 8 10 11 14 13 13 11 9 8 8 9 9 8 8 6 3 8
20 22 26 26 21 18 17 27 22 23 23 14 16 16 17 18 20 20 17 18 18 14 13 14 17 17 17 16 13 13 14 10 8 9 10 13 13 14 12 9 9 10 9 11 10 8 8 8 10
19 20 21 22 18 20 23 25 22 20 16 15 17 17 16 17 17 15 17 17 16 13 11 11 13 17 16 12 12 11 9 8 7 10 10 14 11 14 12 10 11 11 9 10 9 11 9 10 10
20 25 27 27 20 20 21 22 19 21 23 22 21 20 16 16 14 16 16 16 16 12 11 14 15 18 14 14 12 10 11 8 8 10 12 13 9 13 13 9 11 9 10 11 13 10 13 9 10
25 27 30 28 25 21 24 23 22 22 25 22 21 21 19 19 20 18 17 16 14 12 13 14 16 18 16 11 9 11 11 10 10 9 10 12 12 12 11 11 9 9 8 13 12 12 8 6 8
30 27 27 26 23 19 23 29 25 27 28 26 26 24 21 21 20 20 18 16 13 15 15 15 16 18 16 13 11 12 10 5 7 7 8 11 14 12 10 10 10 10 7 11 13 15 16 10 11
26 27 26 23 21 19 21 24 22 24 25 23 24 25 23 21 20 15 12 12 15 15 13 14 16 18 17 17 17 19 13 10 10 10 10 10 14 14 13 12 12 11 11 12 12 12 14 14 13
31 25 25 22 18 21 24 20 14 15 19 17 14 13 13 5 6 10 13 13 15 14 12 12 15 17 19 19 18 14 15 11 10 9 11 13 13 16 16 13 12 10 12 14 16 14 13 12 13
26 24 26 20 16 18 25 23 18 17 12 11 4 1 6 5 5 5 5 5 10 10 9 9 13 16 17 15 18 19 16 13 10 10 9 8 8 10 13 15 12 12 11 11 15 16 15 13 13
28 23 17 16 16 21 22 22 18 13 11 10 16 11 8 7 4 1 3 2 3 9 8 7 12 14 12 14 15 16 14 13 12 11 9 8 6 5 9 11 11 11 15 13 13 15 15 12 12
28 26 17 25 16 21 22 19 17 17 16 8 10 11 8 5 6 7 6 5 3 3 8 8 12 10 9 12 13 13 13 9 8 9 8 7 7 8 11 10 11 12 15 14 15 13 14 12 10
26 27 27 27 20 16 13 18 19 15 13 15 12 11 7 6 7 9 9 8 7 3 3 5 9 10 10 13 11 13 12 11 10 10 8 8 6 6 8 9 10 12 15 16 16 13 16 15 12
24 20 24 19 23 23 17 18 16 19 14 21 15 10 8 8 7 8 9 9 7 2 3 5 6 8 11 14 10 12 12 11 8 7 6 6 6 7 8 8 8 9 9 14 14 11 15 15 12
14 20 21 17 20 18 15 14 16 14 18 19 16 11 8 7 8 9 7 8 9 6 1 4 5 7 8 10 8 10 11 11 8 6 7 8 7 9 9 9 9 10 9 10 12 11 12 16 15
22 22 24 12 21 17 17 14 13 12 14 15 14 11 11 11 11 10 10 9 10 11 7 2 4 4 6 4 5 7 9 9 9 7 8 7 8 8 9 9 10 10 10 10 10 11 11 15 16
Wind_Direction
216 218 236 245 245 232 255 241 237 212 207 254 311 180 268 7 42 20 94 104 123 127 127 153 142 146 151 155 161 167 177 170 171 171 173 172 168 168 164 159 155 150 145 138 137 138 133 127 118
225 224 238 268 249 250 238 226 183 234 94 141 227 165 241 208 101 111 125 129 141 139 137 144 151 145 153 155 164 173 173 170 173 175 174 179 179 170 175 158 155 153 149 142 140 139 132 126 119
260 228 263 231 234 255 272 141 209 162 115 199 200 220 217 241 132 136 124 149 156 147 153 128 155 153 151 152 159 162 168 171 170 173 181 184 177 174 61 134 154 164 150 144 142 137 132 121 119
216 204 250 258 254 244 270 315 235 145 198 212 221 185 217 51 131 162 143 158 162 154 145 135 148 152 153 150 163 171 167 172 170 168 181 174 112 105 118 243 238 215 152 143 140 133 129 125 122
240 258 241 245 249 260 250 280 134 234 254 203 223 214 224 154 116 127 157 162 165 155 126 147 153 157 156 154 167 179 177 169 168 177 155 137 122 139 165 204 157 283 239 132 133 130 131 128 128
229 239 246 251 251 247 248 234 224 228 245 223 218 235 205 130 155 139 160 160 170 154 138 146 159 162 158 154 166 181 173 162 172 173 149 135 153 189 162 186 158 166 219 147 139 136 133 132 130
245 243 245 260 272 280 205 212 241 241 242 221 219 222 226 131 55 144 162 173 172 157 157 155 165 173 164 165 164 175 173 169 164 190 146 154 167 193 178 180 173 178 174 145 141 134 134 132 134
247 253 262 260 260 267 285 207 237 242 236 177 248 241 226 123 130 178 169 181 178 171 171 165 168 172 178 180 166 182 173 150 141 157 155 156 172 175 198 197 178 170 153 149 141 138 133 135 134
239 255 249 249 250 260 267 274 262 255 250 183 205 263 70 111 159 173 166 181 186 182 182 176 175 175 174 189 176 180 182 144 148 157 137 143 180 186 187 192 152 146 157 152 145 139 133 136 133
232 243 243 254 269 273 289 259 269 202 241 231 212 228 226 201 183 198 193 187 195 192 191 186 185 178 173 186 186 194 196 200 203 187 178 190 208 192 182 168 150 155 166 141 147 147 142 156 159
230 244 267 255 255 271 272 270 262 268 246 229 220 204 212 218 221 213 227 204 195 200 195 198 188 182 178 183 182 190 213 197 198 207 193 204 199 201 188 166 171 176 161 153 155 151 171 175 157
252 253 262 267 271 268 255 263 270 264 255 266 262 245 247 256 246 238 225 226 203 194 194 198 194 189 175 182 193 195 196 205 197 195 198 190 191 196 201 183 185 175 168 173 175 186 174 162 165
258 254 260 263 257 261 274 265 263 263 263 256 263 262 251 250 251 242 243 237 234 210 194 194 204 193 175 200 189 207 196 204 205 199 181 186 198 194 198 191 185 178 172 183 188 171 175 167 174
282 274 270 253 258 256 257 262 259 253 252 257 253 253 246 244 244 240 227 237 221 230 199 194 200 202 180 192 197 186 197 195 199 202 199 200 194 198 205 213 192 176 175 175 144 188 181 169 178
267 268 268 262 258 262 260 262 252 257 251 248 240 239 239 240 238 235 230 235 233 215 215 202 201 201 197 182 191 189 204 194 198 206 205 204 207 208 204 201 191 183 169 159 149 177 266 169 182
278 264 263 256 240 240 236 258 258 272 258 228 236 243 242 243 241 236 233 237 237 223 201 208 204 199 202 187 194 193 202 190 190 196 208 213 212 213 208 204 190 182 161 156 164 176 168 213 192
245 255 258 263 251 232 238 255 253 249 258 252 236 236 230 231 234 232 230 222 232 222 231 209 201 200 202 195 196 197 177 207 181 191 198 208 216 215 216 203 193 184 170 168 167 173 168 186 220
253 257 257 259 251 257 231 251 259 260 256 239 256 253 244 232 224 220 226 230 232 224 228 236 194 199 196 194 200 193 175 196 182 202 198 201 214 213 211 208 196 178 170 165 168 174 185 199 208
265 271 268 269 273 249 252 266 260 253 248 241 237 255 247 247 241 245 240 237 231 221 219 226 201 197 190 199 188 178 189 180 191 200 204 207 191 211 213 206 194 186 174 174 174 175 188 207 205
256 244 252 260 267 271 271 258 262 273 274 262 254 245 242 250 247 243 243 239 231 223 216 218 203 197 193 195 185 184 200 184 195 201 194 201 204 205 206 201 189 171 178 175 175 182 180 196 217
255 253 254 258 268 255 254 262 254 255 257 257 251 249 248 242 243 244 241 238 206 214 220 214 201 198 182 177 189 199 194 137 187 196 209 190 195 190 190 194 192 194 193 172 181 189 178 186 201
270 248 255 259 262 257 239 262 256 251 240 233 239 233 237 241 244 251 256 244 231 216 216 215 203 199 169 180 201 196 183 188 200 189 201 200 200 192 189 192 197 188 189 183 183 195 181 186 185
258 261 263 253 243 253 252 258 257 253 254 218 219 227 216 212 239 240 236 242 239 213 194 217 206 200 173 190 199 199 198 193 181 198 186 198 192 198 194 192 194 192 193 180 182 189 197 191 185
279 276 251 260 242 238 239 245 249 257 213 232 139 143 135 189 211 233 241 284 247 121 179 198 222 197 172 200 201 200 201 193 184 189 191 193 202 204 194 188 186 189 196 197 184 181 192 197 201
252 254 235 226 226 233 230 233 242 247 270 208 159 145 174 164 139 263 12 345 201 156 166 197 223 199 187 201 207 195 198 200 197 190 193 192 194 186 199 187 195 194 194 192 185 182 186 196 194
233 244 235 222 217 239 231 251 235 231 233 220 130 151 160 149 101 71 50 53 68 111 161 204 213 186 186 213 201 196 194 196 199 201 211 210 215 203 206 198 196 196 196 192 185 187 185 183 198
220 228 242 249 245 254 240 215 244 239 214 148 177 171 144 109 73 63 65 36 25 39 268 203 224 175 177 205 211 199 194 199 202 209 208 200 192 212 209 198 198 201 195 187 188 185 186 184 182
232 217 229 226 240 250 234 237 213 213 190 165 188 174 136 111 89 58 44 35 26 13 164 214 227 189 192 213 196 197 197 198 198 211 176 200 192 188 190 184 189 184 180 183 178 185 187 174 173
191 233 231 227 221 247 247 244 262 235 178 169 179 151 139 115 98 82 57 47 23 1 29 204 209 223 199 230 191 196 191 200 194 205 184 190 177 190 189 181 182 173 164 169 171 175 180 167 169
309 214 227 216 230 231 251 251 338 160 148 179 134 145 130 112 95 82 76 54 48 21 355 171 201 222 210 194 192 211 199 196 192 200 186 172 174 179 173 181 177 171 164 164 167 169 170 175 177